Location: Knowlton
(51.2333°N, 1.2667°E)
Time: 05:04:21
(UTC+00:00)

Meteor 1-4 Rocket - Pass Details

Date: 18 April 2021
Orbit: 448 x 499 km, 81.2° (Epoch: 06 May)

Event Time Altitude Azimuth Distance (km) Brightness Sun altitude
Exits shadow 22:44:22 24° 291° (WNW) 994 4.5 -25.8°
Maximum altitude 22:44:26 24° 292° (WNW) 994 4.5 -25.8°
Drops below altitude 10° 22:47:22 10° 349° (NNW) 1,619 6.2 -25.9°
Sets 22:49:45 0° 3° (N) 2,509 7.3 -26.1°
